Avalon, CA

4:13 AM PST on December 11, 2016 (GMT -0800)
San Clemente Island Naval Air Landing Field

Weather History for KNUC - December, 2012

Change the Weather History Date:

Thursday, December 6, 2012

  Actual Average (KAVX) Record (KAVX)
Temperature  
Mean Temperature 62 °F -  
Max Temperature 64 °F 58 °F 71 °F (2000)
Min Temperature 61 °F 48 °F 44 °F (2004)
Degree Days  
Heating Degree Days 2    
Growing Degree Days 12 (Base 50)    
Moisture  
Dew Point 60 °F    
Average Humidity 90    
Maximum Humidity 97    
Minimum Humidity 80    
Precipitation  
Precipitation 0.00 in - - ()
Sea Level Pressure  
Sea Level Pressure 29.96 in    
Wind  
Wind Speed 7 mph (NW)    
Max Wind Speed 10 mph    
Max Gust Speed -    
Visibility 8 miles    
Events      
Averages and records for this station are not official NWS values.
T = Trace of Precipitation, MM = Missing Value Source: NWS Daily Summary

Daily Weather History Graph

Daily Weather History Graph

Search for Another Location

Airport or City:

Trip Planner

Search our weather history database for the weather conditions in past years. The results will help you decide how hot, cold, wet, or windy it might be!

Date:

Astronomy

Dec. 06, 2012 Rise Set
Actual Time 6:43 AM PST 4:47 PM PST
Civil Twilight 6:16 AM PST 5:14 PM PST
Nautical Twilight 5:46 AM PST 5:45 PM PST
Astronomical Twilight 5:15 AM PST 6:15 PM PST
Moon No Moon Rise 11:57 AM PST (12/6)
Length of Visible Light 10h 57m
Length of Day
10h 03m
Waning Gibbous, 48% of the Moon is Illuminated
Dec 6
Waning Gibbous
Dec 13
New
Dec 19
First Quarter
Dec 28
Full
Jan 4
Last Quarter

Hourly Weather History & Observations

Time (PST) Temp. Dew Point Humidity Pressure Visibility Wind Dir Wind Speed Gust Speed Precip Events Conditions
6:56 AM 61.0 °F 60.1 °F 97% 29.99 in 4.0 mi WNW 8.1 mph - 0.00 in   Light Drizzle
7:24 AM 62.6 °F 60.8 °F 94% 29.99 in 7.0 mi West 6.9 mph - 0.00 in   Light Drizzle
7:43 AM 62.6 °F 60.8 °F 94% 29.99 in 10.0 mi West 6.9 mph - 0.00 in   Mostly Cloudy
7:56 AM 61.9 °F 60.1 °F 94% 30.00 in 10.0 mi West 6.9 mph - 0.00 in   Mostly Cloudy
8:14 AM 62.6 °F 60.8 °F 94% 30.00 in 7.0 mi West 8.1 mph - 0.00 in   Light Drizzle
8:27 AM 62.6 °F 60.8 °F 94% 30.00 in 7.0 mi WNW 5.8 mph - 0.00 in   Light Drizzle
8:43 AM 62.6 °F 60.8 °F 94% 30.00 in 7.0 mi WNW 6.9 mph - 0.00 in   Overcast
8:56 AM 62.4 °F 61.0 °F 95% 30.00 in 7.0 mi WNW 8.1 mph - 0.00 in   Overcast
9:56 AM 62.6 °F 60.1 °F 91% 30.01 in 2.0 mi NW 9.2 mph - 0.00 in   Drizzle
10:05 AM 62.6 °F 60.8 °F 94% 30.01 in 3.0 mi WNW 6.9 mph - 0.00 in   Drizzle
10:19 AM 62.6 °F 60.8 °F 94% 30.01 in 5.0 mi NW 6.9 mph - 0.00 in   Mostly Cloudy
10:56 AM 62.6 °F 60.1 °F 91% 30.00 in 7.0 mi NNW 6.9 mph - 0.00 in   Light Drizzle
11:56 AM 63.9 °F 61.0 °F 90% 29.96 in 7.0 mi NNW 5.8 mph - 0.00 in   Light Drizzle
12:19 PM 64.4 °F 60.8 °F 88% 29.94 in 10.0 mi NNW 5.8 mph - 0.00 in   Mostly Cloudy
12:56 PM 63.9 °F 61.0 °F 90% 29.93 in 10.0 mi NNW 4.6 mph - 0.00 in   Mostly Cloudy
1:56 PM 64.4 °F 59.0 °F 83% 29.92 in 10.0 mi NNW 8.1 mph - N/A   Mostly Cloudy
2:56 PM 63.7 °F 59.0 °F 85% 29.91 in 10.0 mi NNW 10.4 mph - N/A   Mostly Cloudy
3:14 PM 64.4 °F 59.0 °F 83% 29.91 in 10.0 mi WNW 9.2 mph - N/A   Scattered Clouds
3:56 PM 63.3 °F 57.0 °F 80% 29.90 in 10.0 mi WNW 9.2 mph - N/A   Partly Cloudy
4:32 PM 62.6 °F 57.2 °F 82% 29.91 in 10.0 mi WNW 10.4 mph - N/A   Mostly Cloudy
4:56 PM 62.1 °F 57.0 °F 84% 29.91 in 10.0 mi WNW 8.1 mph - N/A   Mostly Cloudy
5:56 PM 61.3 °F 57.0 °F 86% 29.92 in 10.0 mi West 6.9 mph - N/A   Scattered Clouds